STARLINK-11311, 61253

Orbit data source: Space-Track

STARLINK-11311, 61253 is a payload satellite owned by SpaceX/Seattle (US) in LEO that was launched on Wed, 25 Sep 2024 UTC via an FALCON 9 launch vehicle from the Air Force Western Test Range (AFWTR). Payload-class satellites include a variety of spacecraft equipped with specific instruments for various scientific and technological missions. These include communications satellites like Starlink; space stations such as the ISS; scientific satellites like the Hubble; Earth observation satellites from companies like Planet Labs, Umbra, and HawkEye 360; GPS; miniature CubeSats for education and research; and military/defense satellites.

Loading next visibility...
Identifier
61253, 2024-175L
Orbit
LEO
Country
Flag of USUS
Related business
Manufacturer
SpaceX/Seattle
Mission
Operational Commercial Communications
Bus & Motor
STARLINK V2MD, Unknown motor
Mass
960 kg wet, ~910 kg dry
Launch date (UTC)
2024-09-25 (2 years ago)
Launch vehicle
FALCON 9
Launch site
Air Force Western Test Range (AFWTR)
Object type
Payload
Rocket body
Debris
Shape & HBR
Box + 2 Pan, 18.1 m
Radar Cross Section
36.964 m², Large (>1 m²)

Expand to show TLE details & history
Last TLE update: 18 hours ago

TLE from 18 hours ago
0 STARLINK-11311
1 61253U 24175L   26265.04466179  .00000061  00000-0  53597-5 0  9995
2 61253  53.1590 168.4938 0000908  88.2933 271.8189 15.69706386115410
Epoch: 2026-09-22T01:04Z
TLE epoch observation values (Epoch: 2026-09-22T01:04:18.778Z)
Latitude
-0.00002°
Longitude
151.49975°
Altitude
360.633 km
Speed
7.694 km/s
True Right ascension
11h 13m 58s
True Declination
0° 00' 00"
Sunlit
Object was in daylight at epoch
Visualization orbit readout
Latitude
Unknown
Longitude
Unknown
Altitude
Unknown
Speed
Unknown
Apparent Right ascension
Unknown
Apparent Declination
Unknown
Sunlit
N/A
Visualization observer readout
Local Sidereal Time
11:49:51
Azimuth
Unknown
Elevation
Unknown
Doppler factor
Unknown
Orbital elements
Apogee altitude
360.61 km
Perigee altitude
359.386 km
Semi-major axis
6,738.135 km
Eccentricity
0.00009
Inclination
53.159°
RAAN
168.4938°
Arg. of periapsis
88.2933°
True anomaly
271.8085°
Mean anomaly
271.8189°
Eccentric anomaly
271.8137°
Mean motion
3.92404 °/min
Orbital period
91.74 mins
BSTAR
0.0000053597
Loading maneuver chart data...
Computing Atmospheric mass density...
Loading historical data...
Loading historical data...
Loading historical data...
Loading historical data...
Loading historical data...
Loading historical data...
Loading historical data...

Documentation

Showing up to 5 results
|